Back to catalog

NANCHANG HANGKONG 2

AliveScienceSSO
NORAD 64051·PAYLOAD·🇨🇳 China
This satellite name has not been confirmed by official sources yet.

Launched May 17, 2025 from Jiuquan Satellite Launch Center

Loading…

Next Passes (next 24 hours)

TLE

FreshSource: Space-Track

Epoch: Sep 14, 2026, 12:51 UTC

1 64051U 25103D   26257.53542296  .00003197  00000-0  15347-3 0  9998
2 64051  97.3748 326.6371 0002850 318.9824  41.1196 15.19564303 73564

Track NANCHANG HANGKONG 2 in real time with AllMySat

Download on the App Store